This demonstration page uses our WeatherBlox Daily Observations layout. Learn more.

Left ArrowRight Arrow

44.8408, -93.29828

Hourly Observations for November 4, 2019

Temp ( °F °C ) Dew Point ( °F °C ) Humidity (%) Winds ( mph kmh ) Pressure ( in mb ) Visibility ( mi km ) Precip ( " mm )
12:53 am 00:53 Cloudy 39 3.9 31 -0.6 73 73 W 7 11 29.84 1010 10 16 0.00 0.00
1:53 am 01:53 Cloudy with Light Rain 39 3.9 31 -0.6 73 73 W 7 11 29.84 1011 10 16 0.00 0.00
2:53 am 02:53 Cloudy 39 3.9 32 0 76 76 W 10 17 29.85 1011 10 16 0.00 0.00
3:53 am 03:53 Cloudy 38 3.3 33 0.6 83 83 WNW 9 15 29.86 1011 10 16 0.01 0.25
4:53 am 04:53 Mostly Cloudy 36 2.2 30 -1.1 79 79 NW 14 22 29.88 1012 10 16 0.00 0.00
5:02 am 05:02 Mostly Cloudy 36 2.2 30 -1.1 79 79 NW 9 15 29.91 1013 10 16 0.00 0.00
5:53 am 05:53 Cloudy 35 1.7 29 -1.7 78 78 NW 12 19 29.91 1013 10 16 0.00 0.00
6:15 am 06:15 Partly Cloudy 34 1.1 29 -1.7 82 82 W 8 13 29.94 1014 10 16 0.00 0.00
6:53 am 06:53 Mostly Cloudy 34 1.1 29 -1.7 82 82 W 9 15 29.93 1013 10 16 0.00 0.00
7:53 am 07:53 Cloudy 36 2.2 31 -0.6 82 82 NW 12 19 29.94 1014 10 16 0.00 0.00
8:36 am 08:36 Cloudy 37 2.8 32 0 82 82 WNW 10 17 29.98 1015 10 16 0.00 0.00
8:53 am 08:53 Cloudy 37 2.8 32 0 82 82 WNW 12 19 29.96 1015 10 16 0.00 0.00
9:10 am 09:10 Cloudy 38 3.3 32 0 79 79 WNW 13 20 29.97 1015 10 16 0.00 0.00
9:30 am 09:30 Cloudy 38 3.3 32 0 79 79 WNW 10 17 29.98 1015 10 16 0.00 0.00
9:53 am 09:53 Cloudy 39 3.9 33 0.6 79 79 WNW 12 19 29.97 1015 10 16 0.00 0.00
10:53 am 10:53 Cloudy with Light Rain 39 3.9 32 0 76 76 WNW 14 22 29.98 1015 10 16 0.00 0.00
11:02 am 11:02 Cloudy 38 3.3 32 0 79 79 NNW 14 22 30.00 1016 2 3 0.00 0.00
11:05 am 11:05 Cloudy with Light Snow 35 1.7 31 -0.6 85 85 NW 13 20 30.01 1016 8 13 0.02 0.51
11:25 am 11:25 Cloudy with Mist and Fog 34 1.1 31 -0.6 89 89 NNW 13 20 30.01 1016 5 8 0.06 1.52
11:39 am 11:39 Cloudy with Light Snow 35 1.7 32 0 89 89 NW 10 17 30.01 1016 9 14 0.06 1.52
11:53 am 11:53 Cloudy with Light Snow 35 1.7 31 -0.6 85 85 WNW 10 17 29.99 1016 8 13 0.07 1.78
12:11 pm 12:11 Cloudy with Mist and Fog 35 1.7 31 -0.6 85 85 NW 10 17 30.02 1017 1 1 0.00 0.00
12:26 pm 12:26 Cloudy with Light Snow 34 1.1 32 0 92 92 NW 9 15 30.01 1016 9 14 0.01 0.25
12:44 pm 12:44 Cloudy 36 2.2 33 0.6 89 89 NW 8 13 30.01 1016 10 16 0.01 0.25
12:53 pm 12:53 Cloudy 36 2.2 33 0.6 89 89 WNW 7 11 29.99 1016 8 13 0.01 0.25
1:49 pm 13:49 Cloudy 36 2 30 -1 81 81 NW 20 31 30.02 1017 1 2 0.01 0.25
1:50 pm 13:50 Cloudy with Mist and Fog 35 1.7 31 -0.6 85 85 WNW 16 26 30.01 1016 1 2 0.01 0.25
1:53 pm 13:53 Cloudy with Mist and Fog 34 1.1 30 -1.1 85 85 NW 10 17 30.02 1017 1 2 0.02 0.51
1:55 pm 13:55 Mostly Cloudy 34 1.1 30 -1.1 85 85 NW 9 15 30.02 1017 8 13 0.03 0.76
2:02 pm 14:02 Mostly Cloudy 35 1.7 31 -0.6 85 85 NW 10 17 30.02 1017 10 16 0.03 0.76
2:08 pm 14:08 Mostly Cloudy 36 2.2 32 0 86 86 NW 10 17 30.02 1017 10 16 0.03 0.76
2:53 pm 14:53 Mostly Cloudy 40 4.4 32 0 73 73 NW 13 20 30.01 1016 10 16 0.03 0.76
3:53 pm 15:53 Mostly Cloudy 38 3.3 23 -5 55 55 NW 18 30 30.03 1017 10 16 0.00 0.00
4:53 pm 16:53 Mostly Cloudy 37 2.8 23 -5 57 57 NW 10 17 30.06 1018 10 16 0.00 0.00
5:53 pm 17:53 Cloudy 37 2.8 24 -4.4 59 59 WNW 6 9 30.07 1018 10 16 0.00 0.00
6:53 pm 18:53 Cloudy 38 3.3 24 -4.4 57 57 WNW 10 17 30.10 1019 10 16 0.00 0.00
7:53 pm 19:53 Cloudy with Light Snow 35 1.7 28 -2.2 76 76 W 15 24 30.11 1020 8 13 0.00 0.00
8:53 pm 20:53 Cloudy 34 1.1 25 -3.9 70 70 NW 20 31 30.13 1020 10 16 0.00 0.00
9:53 pm 21:53 Cloudy 32 0 22 -5.6 66 66 NW 14 22 30.16 1021 10 16 0.00 0.00
10:29 pm 22:29 Cloudy 31 -0.6 22 -5.6 69 69 WNW 8 13 30.20 1023 10 16 0.00 0.00
10:53 pm 22:53 Cloudy 31 -0.6 20 -6.7 64 64 WNW 17 28 30.18 1022 10 16 0.00 0.00
11:30 pm 23:30 Cloudy 30 -1.1 17 -8.3 58 58 NW 17 28 30.21 1023 10 16 0.00 0.00
11:53 pm 23:53 Cloudy 29 -1.7 15 -9.4 56 56 WNW 16 26 30.21 1023 10 16 0.00 0.00

Powered by AerisWeather